Date String (YYYY-MM-DD hh:mm:ss) UTC,Instrument flags,Ambient pressure (hPa),Sample flow (lpm),Bypass flow (lpm),Sample temperature (°C),Ambient temperature (°C),ASC tube jacket temperature (°C),LED temperature (°C),Box temperature (°C),Sample RH (%),Span deviation,Mass concentration (μg/m³),Mass concentration (μg/m³),Mass concentration (μg/m³)
DateTimeUTC,F1_M11,P_M11,Q1_M11,Q2_M11,T1_M11,T2_M11,T3_M11,T4_M11,T5_M11,U1_M11,ZSPAN_M11,X0_M11,X2_M11,X1_M11
2022-06-16 15:00:00,,0830.1,4.99,0.00,29.5,28.0,00.0,38.4,31.4,17.9,0000.0,0014.39,0004.67,0003.12
2022-06-16 15:01:00,,0830.1,5.00,0.00,29.5,28.1,00.0,38.4,31.4,17.8,0000.0,0013.88,0004.59,0003.11
2022-06-16 15:02:00,,0830.1,4.99,0.00,29.5,28.2,00.0,38.4,31.4,17.6,0000.0,0012.93,0004.56,0003.09
2022-06-16 15:03:00,,0830.1,5.01,0.00,29.5,28.3,00.0,38.4,31.5,17.5,0000.0,0012.86,0004.51,0003.05
2022-06-16 15:04:00,,0830.1,5.00,0.00,29.6,28.4,00.0,38.4,31.5,17.3,0000.0,0012.94,0004.51,0003.03
2022-06-16 15:05:00,,0830.1,5.00,0.00,29.6,28.5,00.0,38.4,31.6,17.2,0000.0,0012.88,0004.46,0003.01
2022-06-16 15:06:00,,0830.1,5.02,0.00,29.6,28.6,00.0,38.4,31.6,17.2,0000.0,0013.23,0004.40,0002.97
2022-06-16 15:07:00,,0830.1,5.02,0.00,29.6,28.5,00.0,38.4,31.6,17.1,0000.0,0013.03,0004.33,0002.93
2022-06-16 15:08:00,,0830.1,4.99,0.00,29.6,27.8,00.0,38.4,31.3,17.1,0000.0,0012.28,0004.26,0002.90
2022-06-16 15:09:00,,0830.1,5.00,0.00,29.5,27.3,00.0,38.3,31.2,17.1,0000.0,0012.89,0004.25,0002.89
2022-06-16 15:10:00,,0830.1,5.01,0.00,29.5,27.2,00.0,38.3,31.2,17.2,0000.0,0012.96,0004.24,0002.88
2022-06-16 15:11:00,,0830.1,4.99,0.00,29.4,27.3,00.0,38.3,31.2,17.2,0000.0,0013.16,0004.24,0002.88
2022-06-16 15:12:00,,0830.1,5.00,0.00,29.4,27.4,00.0,38.3,31.2,17.3,0000.0,0012.54,0004.24,0002.89
2022-06-16 15:13:00,,0830.1,5.01,0.00,29.4,27.6,00.0,38.3,31.2,17.3,0000.0,0012.31,0004.17,0002.89
2022-06-16 15:14:00,,0830.1,4.99,0.00,29.4,27.8,00.0,38.3,31.2,17.2,0000.0,0012.44,0004.20,0002.90
2022-06-16 15:15:00,,0830.1,4.99,0.00,29.4,27.9,00.0,38.3,31.3,17.2,0000.0,0012.90,0004.21,0002.88
2022-06-16 15:16:00,,0830.1,5.01,0.00,29.4,28.0,00.0,38.3,31.3,17.3,0000.0,0013.61,0004.26,0002.88
2022-06-16 15:17:00,,0830.1,5.00,0.00,29.4,28.2,00.0,38.3,31.4,17.3,0000.0,0013.14,0004.25,0002.89
2022-06-16 15:18:00,,0830.1,5.01,0.00,29.4,28.3,00.0,38.3,31.4,17.2,0000.0,0013.14,0004.24,0002.89
2022-06-16 15:19:00,,0830.1,4.99,0.00,29.5,28.4,00.0,38.3,31.4,17.2,0000.0,0012.65,0004.21,0002.90
2022-06-16 15:20:00,,0830.1,5.00,0.00,29.5,28.5,00.0,38.3,31.5,17.1,0000.0,0011.89,0004.19,0002.91
2022-06-16 15:21:00,,0830.1,5.00,0.00,29.5,28.4,00.0,38.3,31.4,17.0,0000.0,0011.86,0004.23,0002.92
2022-06-16 15:22:00,,0830.1,4.99,0.00,29.5,27.6,00.0,38.2,31.2,17.0,0000.0,0011.86,0004.27,0002.92
2022-06-16 15:23:00,,0830.1,5.01,0.00,29.4,27.2,00.0,38.2,31.0,17.0,0000.0,0012.38,0004.26,0002.91
2022-06-16 15:24:00,,0830.2,5.00,0.00,29.3,27.1,00.0,38.2,31.0,17.0,0000.0,0012.98,0004.27,0002.91
2022-06-16 15:25:00,,0830.2,5.00,0.00,29.3,27.2,00.0,38.2,31.0,17.1,0000.0,0013.48,0004.25,0002.92
2022-06-16 15:26:00,,0830.2,5.00,0.00,29.3,27.4,00.0,38.2,31.1,17.0,0000.0,0013.17,0004.25,0002.93
2022-06-16 15:27:00,,0830.2,5.00,0.00,29.3,27.5,00.0,38.2,31.1,17.0,0000.0,0013.13,0004.25,0002.94
2022-06-16 15:28:00,,0830.2,5.00,0.00,29.3,27.7,00.0,38.2,31.1,16.9,0000.0,0012.98,0004.26,0002.94
2022-06-16 15:29:00,,0830.2,5.00,0.00,29.3,27.8,00.0,38.2,31.2,16.8,0000.0,0012.97,0004.32,0002.95
2022-06-16 15:30:00,,0830.2,4.99,0.00,29.3,28.0,00.0,38.2,31.2,16.8,0000.0,0012.82,0004.35,0002.94
2022-06-16 15:31:00,,0830.2,5.00,0.00,29.3,28.1,00.0,38.2,31.3,16.7,0000.0,0012.70,0004.38,0002.92
2022-06-16 15:32:00,,0830.2,5.01,0.00,29.3,28.2,00.0,38.2,31.3,16.6,0000.0,0012.51,0004.33,0002.89
2022-06-16 15:33:00,,0830.2,4.99,0.00,29.4,28.3,00.0,38.2,31.4,16.5,0000.0,0012.04,0004.26,0002.87
2022-06-16 15:34:00,,0830.3,4.99,0.00,29.4,28.4,00.0,38.2,31.4,16.4,0000.0,0011.85,0004.30,0002.87
2022-06-16 15:35:00,,0830.3,5.01,0.00,29.4,28.5,00.0,38.2,31.4,16.3,0000.0,0011.25,0004.28,0002.86
2022-06-16 15:36:00,,0830.2,5.00,0.00,29.5,28.3,00.0,38.2,31.4,16.1,0000.0,0010.54,0004.24,0002.84
2022-06-16 15:37:00,,0830.2,4.98,0.00,29.4,27.6,00.0,38.2,31.2,16.1,0000.0,0010.50,0004.21,0002.84
2022-06-16 15:38:00,,0830.2,5.01,0.00,29.3,27.2,00.0,38.1,31.0,16.1,0000.0,0010.26,0004.18,0002.83
2022-06-16 15:39:00,,0830.2,5.00,0.00,29.3,27.2,00.0,38.1,31.1,16.0,0000.0,0010.22,0004.17,0002.82
2022-06-16 15:40:00,,0830.2,4.99,0.00,29.3,27.3,00.0,38.1,31.0,16.1,0000.0,0010.66,0004.11,0002.82
2022-06-16 15:41:00,,0830.2,4.99,0.00,29.2,27.4,00.0,38.1,31.1,16.1,0000.0,0010.85,0004.09,0002.81
2022-06-16 15:42:00,,0830.3,4.99,0.00,29.2,27.6,00.0,38.1,31.1,16.0,0000.0,0010.79,0004.08,0002.79
2022-06-16 15:43:00,,0830.2,5.00,0.00,29.2,27.7,00.0,38.1,31.1,15.8,0000.0,0010.80,0004.11,0002.80
2022-06-16 15:44:00,,0830.2,5.00,0.00,29.3,27.9,00.0,38.1,31.2,15.8,0000.0,0010.73,0004.11,0002.78
2022-06-16 15:45:00,,0830.2,5.00,0.00,29.3,28.0,00.0,38.1,31.2,15.8,0000.0,0010.27,0004.04,0002.76
2022-06-16 15:46:00,,0830.2,5.00,0.00,29.3,28.1,00.0,38.1,31.3,15.8,0000.0,0010.18,0004.04,0002.76
2022-06-16 15:47:00,,0830.1,5.01,0.00,29.3,28.2,00.0,38.1,31.3,15.7,0000.0,0010.07,0004.05,0002.78
2022-06-16 15:48:00,,0830.2,5.00,0.00,29.4,28.3,00.0,38.2,31.3,15.7,0000.0,0009.85,0004.03,0002.77
2022-06-16 15:49:00,,0830.2,4.99,0.00,29.4,28.4,00.0,38.2,31.4,15.6,0000.0,0009.44,0004.02,0002.76
2022-06-16 15:50:00,,0830.2,5.01,0.00,29.4,28.2,00.0,38.2,31.3,15.6,0000.0,0009.05,0004.00,0002.75
2022-06-16 15:51:00,,0830.1,5.01,0.00,29.3,27.4,00.0,38.1,31.0,15.6,0000.0,0008.74,0003.98,0002.72
2022-06-16 15:52:00,,0830.1,5.00,0.00,29.3,27.1,00.0,38.1,30.9,15.8,0000.0,0008.66,0003.95,0002.70
2022-06-16 15:53:00,,0830.1,4.99,0.00,29.2,27.1,00.0,38.1,31.0,15.9,0000.0,0009.27,0003.87,0002.67
2022-06-16 15:54:00,,0830.1,4.99,0.00,29.2,27.2,00.0,38.1,31.0,15.9,0000.0,0009.64,0003.81,0002.66
2022-06-16 15:55:00,,0830.1,5.00,0.00,29.2,27.4,00.0,38.1,31.0,15.9,0000.0,0009.62,0003.78,0002.65
2022-06-16 15:56:00,,0830.1,5.00,0.00,29.2,27.5,00.0,38.1,31.0,16.1,0000.0,0009.68,0003.77,0002.66
2022-06-16 15:57:00,,0830.1,5.01,0.00,29.2,27.7,00.0,38.0,31.1,16.1,0000.0,0010.14,0003.78,0002.64
2022-06-16 15:58:00,,0830.1,4.99,0.00,29.2,27.9,00.0,38.1,31.1,16.1,0000.0,0011.22,0003.81,0002.63
2022-06-16 15:59:00,,0830.1,4.99,0.00,29.2,28.0,00.0,38.1,31.2,16.1,0000.0,0011.88,0003.85,0002.61
